Simultaneous Nadir Overpasses (SNOs) Predictions

Prediction of SNOs between GOES-15 and TERRA Satellite Orbit:

Table of predicted SNOs for the next 14.0 days since TLE Epoch: 3/4/2023
Index Date Time (GOES-15) GOES-15 Lat,Lon TERRA Lat,Lon Distance(km) Time Diff (sec)
1 03/04/2023 06:25:41 0.06,-127.95 0.96,-123.78 474.58 80
2 03/04/2023 18:43:17 -0.07,-127.92 0.11,-128.70 88.93 80
3 03/06/2023 18:29:58 -0.06,-127.87 -0.72,-124.84 344.48 80
4 03/07/2023 06:47:44 0.07,-127.87 -0.31,-129.81 219.52 80
5 03/09/2023 06:34:23 0.07,-127.82 0.44,-125.93 214.00 80
6 03/09/2023 18:52:00 -0.08,-127.79 0.56,-130.86 349.25 80
7 03/11/2023 18:38:39 -0.08,-127.73 -0.23,-126.99 83.57 80
8 03/12/2023 06:56:23 0.09,-127.72 -0.83,-131.95 481.01 80
9 03/14/2023 06:40:22 0.09,-127.65 0.00,-128.08 49.00 80
10 03/16/2023 06:27:00 0.09,-127.57 0.81,-124.21 382.31 80
11 03/16/2023 18:44:36 -0.10,-127.53 0.24,-129.13 181.29 80
